Regional Weather Roundup
Issued by NWS Upton, NY

Current Version | Previous Version | Graphics & Text | Print | Product List | Glossary Off
Versions: 1 2 3 4 5 6 7 8 9 10 11 12 13 14 15 16 17 18 19 20 21 22 23 24 25 26 27 28 29 30 31 32 33 34 35 36 37 38 39 40 41 42 43 44 45 46 47 48 49 50

000
ASUS41 KOKX 211605
RWROKX

REGIONAL WEATHER ROUNDUP
NATIONAL WEATHER SERVICE NEW YORK NY
1100 AM EST FRI NOV 21 2014

NOTE: "FAIR" INDICATES FEW OR NO CLOUDS BELOW 12,000 FEET WITH NO
SIGNIFICANT WEATHER AND/OR OBSTRUCTIONS TO VISIBILITY.

NYZ071-072-176-178-NJZ106-104-211700-
NEW YORK CITY METRO AREA


CITY           SKY/WX    TMP DP  RH WIND       PRES   REMARKS
CENTRAL PARK   SUNNY     32   8  36 VRB7G23   30.30R WCI  26
LAGUARDIA APRT MOSUNNY   33  13  43 NW20G32   30.29R WCI  21
KENNEDY INTL   MOSUNNY   35   8  32 NW21G28   30.30R WCI  24
NEWARK/LIBERTY MOSUNNY   33   8  35 W14G23    30.30S WCI  23
BRNX BOT. GARD   N/A    N/A N/A N/A N8        30.29S
TETERBORO      SUNNY     33   9  36 W16G23    30.29R WCI  23
$$

NYZ177-179-078>081-211700-
LONG ISLAND NEW YORK

CITY           SKY/WX    TMP DP  RH WIND       PRES   REMARKS
FARMINGDALE    SUNNY     34  10  37 NW16G30   30.27R WCI  24
ISLIP          MOSUNNY   33  11  39 NW21G26   30.23R WCI  21
SHIRLEY        SUNNY     33  12  41 NW17G26   30.25R WCI  22
WESTHAMPTON    MOSUNNY   34  12  40 W18G29    30.24R WCI  23
MONTAUK POINT    N/A     34  12  40 NW15G25   30.20R WCI  24
$$

NYZ052-065-067-211700-
HUDSON VALLEY

CITY           SKY/WX    TMP DP  RH WIND       PRES   REMARKS
WHITE PLAINS   MOSUNNY   32  11  41 NW13G24   30.24R WCI  22
NEWBURGH       PTSUNNY   28  14  54 NW16G23   30.26R WCI  17
MONTGOMERY     CLOUDY    30  11  45 NW12      30.26R WCI  20
POUGHKEEPSIE   CLOUDY    33  10  38 NW10      30.26R WCI  25
ALBANY         PTSUNNY   27  16  63 W15       30.24R WCI  15
$$

NJZ001-105-106-008-010-013-015-019>022-104-211700-
NEW JERSEY

CITY           SKY/WX    TMP DP  RH WIND       PRES   REMARKS
NEWARK/LIBERTY MOSUNNY   33   8  35 W14G23    30.30S WCI  23
TETERBORO      SUNNY     33   9  36 W16G23    30.29R WCI  23
CALDWELL       SUNNY     32   8  36 NW12G18   30.29R WCI  23
MORRISTOWN     MOSUNNY   32   9  37 NW22G30   30.30R WCI  19
SOMERVILLE     SUNNY     33   8  35 NW14G22   30.30R WCI  23
SUSSEX         MOSUNNY   31  11  43 NW12G22   30.28R WCI  22
ANDOVER          N/A     30   8  39 NW8G16    30.29R WCI  22
TRENTON        SUNNY     32   8  36 NW14G21   30.33R WCI  22
MILLVILLE      MOSUNNY   33   7  33 NW21G29   30.38R WCI  21
ATLANTIC CITY  MOSUNNY   34   7  32 NW20G26   30.34S WCI  23
WRIGHTSTOWN    SUNNY     33   7  33 NW17G23   30.31R WCI  22
TOMS RIVER     SUNNY     34   7  32 NW7G17    30.33S WCI  28
BELMAR         SUNNY     34   7  32 NW17G26   30.30F WCI  23
$$

PAZ047>061-062-071-211700-
EASTERN PENNSYLVANIA

CITY           SKY/WX    TMP DP  RH WIND       PRES   REMARKS
PHILADELPHIA   MOSUNNY   33   5  30 NW15      30.38R WCI  23
ALLENTOWN      SUNNY     32   8  36 NW17G29   30.34R WCI  21
SCRANTON       PTSUNNY   28  10  46 NW14G23   30.30R WCI  17
$$

CTZ002-004>006-009-010-012-RIZ004-006-007-MAZ004-011-015-211700-
SOUTHERN NEW ENGLAND
 IN CT

CITY           SKY/WX    TMP DP  RH WIND       PRES   REMARKS
BRADLEY INTL   PTSUNNY   34  10  37 NW15G28   30.18S WCI  24
HARTFORD       MOSUNNY   31  10  41 NW17G25   30.21R WCI  19
DANBURY        SUNNY     31   8  38 NW13G18   30.24R WCI  21
WTRBRY/OXFORD  MOSUNNY   28   7  40 N14G21    30.20R WCI  17
BRIDGEPORT     SUNNY     34  10  37 NW18G24   30.23R WCI  23
MERIDEN        SUNNY     33   9  36 NW10G22   30.22R WCI  25
NEW HAVEN      MOSUNNY   36  12  37 NW13G18   30.22S WCI  27
CHESTER        FAIR      32   9  37 NW14G22   30.18S WCI  22
GROTON         SUNNY     32  10  40 NW16G29   30.19R WCI  21
WILLIMANTIC    SUNNY     32  10  40 NW14G25   30.18R WCI  22

 IN RI

CITY           SKY/WX    TMP DP  RH WIND       PRES   REMARKS
PROVIDENCE     MOSUNNY   33   8  35 NW16G24   30.15S WCI  23
BLOCK ISLAND   SUNNY     34  10  37 NW14G26   30.16S WCI  24
WESTERLY       SUNNY     33   8  35 W10G20    30.18R WCI  25

 IN MA

CITY           SKY/WX    TMP DP  RH WIND       PRES   REMARKS
BOSTON         MOSUNNY   34  10  37 NW18G28   30.11R WCI  23
WORCESTER      SUNNY     28   8  43 W29G37    30.08S WCI  12
WESTFIELD      MOSUNNY   33  10  38 NW22G32   30.18R WCI  21
PROVINCETOWN   MOSUNNY   36  14  41 NW20G32   30.09S WCI  25
NANTUCKET      SUNNY     35  11  36 NW23G30   30.11R WCI  23
$$

ANZ330-335-338-340-345-350-353-355-211700-
COASTAL MARINE OBSERVATIONS


STATION/POSITION TIME  SKY/WX   TEMP    WIND        PRES    VSBY  WAVE
                                AIR SEA DIR/SP/G                  HT/PER
                 (UTC)          (F)     (DEG/KT/KT) (MB)    (MI)  (FT/S)
NY HARB ENTRANCE 1600            33 56  300/ 23/ 29 1025.5          4/ 4
4S FIRE IS       1600               53                N/A           4/ 5
20S FIRE ISLAND  1600            33 54  310/ 25/ 33 1024.3          6/ 6
23SW MTP         1600                                 N/A           6/ 6
HUDSON CANYON    1600            35 58  310/ 25/ 31 1023.7         10/ 7
EXECUTION ROCKS  1600            34 48  300/ 17/ 25   N/A
WESTERN LI SOUND 1600            33     300/ 21/ 27   N/A           2/ 3
CENTRAL LI SOUND 1500            32 52  300/ 17/ 25   N/A           4/ 6
EASTERN LI SOUND 1500            35 53  310/ 17/ 25   N/A
ROBBINS REEF     1600            31     290/ 23/ 27 1024.6
$$


>>>>>>>>>>>>>>>>>>>>>>>>>>>> KEY <<<<<<<<<<<<<<<<<<<<<<<<<<<
>                                                          <
>     SKY/WX - SKY CONDITION/PRESENT WEATHER               <
>     TMP    - TEMPERATURE IN FAHRENHEIT                   <
>     DP     - DEWPOINT IN FAHRENHEIT                      <
>     RH     - RELATIVE HUMIDITY IN PERCENT                <
>     WIND   - DIRECTION AND SPEED IN MPH                  <
>     PRES   - MEAN SEA LEVEL PRESSURE IN INCHES OF HG     <
>     WCI    - WIND CHILL INDEX                            <
>     VSB    - VISIBILITY IN MILES                         <
>     HX     - HEAT INDEX                                  <
>     TC     - TEMPERATURE IN CELSIUS                      <
>     VRB    - VARIABLE WIND DIRECTION                     <
>                                                          <
>>>>>>>>>>>>>>>>>>>>>>>>>>>> KEY <<<<<<<<<<<<<<<<<<<<<<<<<<<





USA.gov is the U.S. government's official web portal to all federal, state and local government web resources and services.